STARLINK-5099 (54009 NORAD) Tracking and Keplerian Element Data

This shows tracking and keplerian element data for the satellite.

Feedback or suggestion? Click here.




ElementValue
Catalog54009
NameSTARLINK-5099
Epoch Orbit130
Epoch Day324.91667824
Epoch Year2022
RAAN225.4603
Inclination53.2168
Eccentricity9.94E-05
Argument of Perigee92.2131
Mean Anonmoly188.0988
Mean Motion15.49951258
Decay Rate-0.00015303
L11 54009U 22125AX 22324.91667824 -.00015303 00000+0 -26158-3 0 9994
L22 54009 53.2168 225.4603 0000994 92.2131 188.0988 15.49951258 1302



Live tracking and technical data element details for STARLINK-5099 (NORAD 54009). STARLINK-5099 can be tracked NOW for your location showing map with azimuth and elevation plus other details from your city location.







IsCatalogInMostPopularTable: catalog: 54009, numindb: 4
Update: records affected: 1



GetName: 54009 STARLINK-5099

Hit Count: updated at: Mon, 28 Nov 2022 21:19:54 GMT